Home   Weather   Spa   Past weeks

Flag for Belgium Past Weather in Spa, Belgium — Yesterday and Last 2 Weeks

Now
60 °F

Clear.


Feels Like: 60 °F
Forecast: 48 / 72 °F
Wind: 2 mph from Southwest

Location: Spa / La Sauveniere

Current Time: Sep 1, 2016 at 1:41:01 AM

Latest Report: Sep 1, 2016 at 1:00 AM


Visibility: 22 mi

Pressure: 30.19 "Hg

Humidity: 80%

Dew Point: 53 °F

Location of SpaLocation

Past Weather in Spa — Graph

°F

Spa Temperature Yesterday

Maximum temperature yesterday: 72 °F (at 6:00 PM)
Minimum temperature yesterday: 57 °F (at 7:00 AM)
Average temperature yesterday: 64 °F

High & Low Weather Summary for the Past Weeks

 TemperatureHumidityPressure
High89 °F (Aug 27, 3:00 PM)98% (Aug 20, 6:00 AM)30.35 "Hg (Aug 20, 6:00 AM)
Low53 °F (Aug 21, 10:00 AM)30% (Aug 24, 4:00 PM)29.80 "Hg (Aug 18, 7:00 PM)
Average67 °F69%30.04 "Hg
* Reported Aug 17 12:00 AM — Sep 1 12:00 AM, Spa, Weather by CustomWeather, © 2016

Note: Actual official high and low records may vary slightly from our data, if they occured in-between our weather recording intervals... More about our weather records

Advertising

Spa Weather History for the Previous 24 Hours

Scroll right to see more
 ConditionsComfort  
Time TempWeatherWind HumidityBarometerVisibility
12:00 AM
Thu, Sep 1
57 °FClear.2 mph86%30.19 "Hg22 mi
11:00 PM
Wed, Aug 31
59 °FClear.2 mph81%30.18 "Hg18 mi
10:00 PM60 °FClear.2 mph80%30.17 "Hg19 mi
9:00 PM64 °FClear.1 mph70%30.15 "Hg22 mi
8:00 PM68 °FSunny.1 mph62%30.13 "Hg22 mi
7:00 PM71 °FPassing clouds.3 mph52%30.12 "Hg25 mi
6:00 PM72 °FSunny.3 mph49%30.12 "Hg22 mi
5:00 PM71 °FPassing clouds.2 mph56%30.12 "Hg22 mi
4:00 PM72 °FScattered clouds.2 mph52%30.12 "Hg25 mi
3:00 PM70 °FOvercast.N/A56%30.13 "Hg22 mi
2:00 PM70 °FScattered clouds.N/A55%30.14 "Hg22 mi
1:00 PM71 °FSunny.2 mph56%30.14 "Hg22 mi
12:00 PM69 °FOvercast.2 mph56%30.15 "Hg22 mi
11:00 AM69 °FSunny.2 mph57%30.14 "Hg19 mi
10:00 AM68 °FSunny.2 mph53%30.14 "Hg28 mi
9:00 AM63 °FSunny.3 mph60%30.15 "Hg25 mi
8:00 AM58 °FSunny.5 mph68%30.16 "Hg28 mi
7:00 AM57 °FSunny.6 mph68%30.17 "Hg31 mi
6:00 AM58 °FClear.6 mph63%30.17 "Hg28 mi
5:00 AM58 °FClear.6 mph64%30.18 "Hg28 mi
4:00 AM58 °FClear.5 mph64%30.19 "Hg28 mi
3:00 AM58 °FClear.6 mph68%30.20 "Hg28 mi
2:00 AM59 °FClear.6 mph69%30.21 "Hg28 mi
1:00 AM59 °FClear.6 mph69%30.22 "Hg28 mi
Weather by CustomWeather, © 2016

See weather overviewHow to use our weather pages